Simultaneous Nadir Overpasses (SNOs) Predictions

Prediction of SNOs between METOP-C and LANDSAT-8 Satellite Orbit:

Table of predicted SNOs for the next 14.0 days since TLE Epoch: 7/11/2020
Index Date (METOP-C) Time (METOP-C) Lat,Lon (METOP-C) SZA (METOP-C ) Date (LANDSAT-8) Time (LANDSAT-8) Lat,Lon (LANDSAT-8) SZA (LANDSAT-8 ) Distance(km) Time Diff (sec)
1 07/13/2020 17:11:26 81.12, -38.00 61.45 07/13/2020 17:12:13 81.12, -37.98 61.47 0.40 47
2 07/13/2020 18:02:05 -81.15, 130.05 118.46 07/13/2020 18:01:39 -81.14, 129.97 118.48 1.49 26
3 07/16/2020 12:45:47 81.13, 28.48 61.90 07/16/2020 12:46:28 81.13, 28.53 61.92 0.86 41
4 07/16/2020 13:36:26 -81.15,-163.49 118.01 07/16/2020 13:35:54 -81.15,-163.50 118.03 0.25 32
5 07/19/2020 08:20:09 81.13, 94.95 62.40 07/19/2020 08:20:44 81.13, 95.01 62.42 1.02 35
6 07/19/2020 09:10:48 -81.15, -97.03 117.51 07/19/2020 09:10:10 -81.15, -97.00 117.53 0.68 38
7 07/22/2020 03:54:31 81.13, 161.41 62.94 07/22/2020 03:55:00 81.13, 161.46 62.96 0.90 29
8 07/22/2020 04:45:10 -81.15, -30.59 116.97 07/22/2020 04:44:26 -81.16, -30.52 116.98 1.28 44
9 07/24/2020 23:28:52 81.13,-132.13 63.53 07/24/2020 23:29:15 81.13,-132.10 63.54 0.53 23
